When you browse on this site, cookies collect data to enhance your experience and personalize the content and advertising you see.
Visit our Privacy Policy to learn more. By continuing to use the site, you agree to this use of cookies and data.
  • In Slovakia
  • List of Countries
  • For 7 days
  • Water Temperature
  • Weather Map
  • Weather Widgets
  • user-avatar
    Login

    Hourly Weather Juan les Pins

    Today, 25 January, Saturday

    Time Temperature Precipitation Wind Pressure Humidity
    00:00 +10°C° 0 mm 3 mps 766 mmHg 68%
    01:00 +10°C° 0 mm 2 mps 766 mmHg 68%
    02:00 +10°C° 0 mm 2 mps 765 mmHg 68%
    03:00 +10°C° 0 mm 2 mps 765 mmHg 68%
    04:00 +10°C° 0 mm 2 mps 765 mmHg 69%
    05:00 +9°C° 0 mm 2 mps 765 mmHg 69%
    06:00 +9°C° 0 mm 2 mps 766 mmHg 70%
    07:00 +10°C° 0 mm 2 mps 766 mmHg 69%
    08:00 +12°C° 0 mm 2 mps 766 mmHg 68%
    09:00 +12°C° 0 mm 2 mps 767 mmHg 68%
    10:00 +13°C° 0 mm 2 mps 766 mmHg 69%
    11:00 +12°C° 0 mm 3 mps 766 mmHg 71%
    12:00 +13°C° 0 mm 3 mps 766 mmHg 73%
    13:00 +12°C° 0 mm 3 mps 766 mmHg 78%
    14:00 +12°C° 0 mm 3 mps 766 mmHg 82%
    15:00 +11°C° 0 mm 3 mps 765 mmHg 87%
    16:00 +12°C° 0 mm 2 mps 765 mmHg 88%
    17:00 +12°C° 0 mm 2 mps 765 mmHg 89%
    18:00 +10°C° 0 mm 2 mps 765 mmHg 89%
    19:00 +11°C° 0 mm 1 mps 765 mmHg 89%
    20:00 +11°C° 0 mm 1 mps 766 mmHg 89%
    21:00 +11°C° 0 mm 1 mps 766 mmHg 89%
    22:00 +11°C° 0 mm 1 mps 766 mmHg 88%
    23:00 +11°C° 0 mm 1 mps 766 mmHg 88%

    Tomorrow, 26 January, Sunday

    Time Temperature Precipitation Wind Pressure Humidity
    00:00 +11°C° 0 mm 1 mps 765 mmHg 88%
    01:00 +11°C° 0 mm 1 mps 765 mmHg 87%
    02:00 +10°C° 0 mm 1 mps 765 mmHg 86%
    03:00 +10°C° 0 mm 1 mps 764 mmHg 85%
    04:00 +10°C° 0 mm 1 mps 764 mmHg 83%
    05:00 +10°C° 0 mm 1 mps 764 mmHg 81%
    06:00 +10°C° 0 mm 1 mps 764 mmHg 79%
    07:00 +10°C° 0.1 mm 1 mps 765 mmHg 78%
    08:00 +11°C° 0.1 mm 1 mps 765 mmHg 77%
    09:00 +11°C° 0.1 mm 1 mps 765 mmHg 76%
    10:00 +12°C° 0 mm 1 mps 765 mmHg 75%
    11:00 +13°C° 0 mm 1 mps 764 mmHg 74%
    12:00 +13°C° 0 mm 1 mps 764 mmHg 73%
    13:00 +13°C° 0 mm 1 mps 764 mmHg 75%
    14:00 +13°C° 0 mm 1 mps 764 mmHg 77%
    15:00 +13°C° 0 mm 1 mps 763 mmHg 79%
    16:00 +12°C° 0 mm 1 mps 764 mmHg 82%
    17:00 +11°C° 0 mm 1 mps 764 mmHg 85%
    18:00 +11°C° 0 mm 1 mps 764 mmHg 89%
    19:00 +10°C° 0 mm 1 mps 764 mmHg 87%
    20:00 +10°C° 0 mm 1 mps 764 mmHg 85%
    21:00 +10°C° 0 mm 1 mps 764 mmHg 84%
    22:00 +10°C° 0 mm 1 mps 764 mmHg 82%
    23:00 +9°C° 0 mm 1 mps 764 mmHg 81%

    Day after tomorrow, 27 January, Monday

    Time Temperature Precipitation Wind Pressure Humidity
    00:00 +9°C° 0 mm 1 mps 764 mmHg 80%
    01:00 +9°C° 0 mm 1 mps 764 mmHg 80%
    02:00 +9°C° 0 mm 1 mps 764 mmHg 80%
    03:00 +9°C° 0 mm 1 mps 763 mmHg 79%
    04:00 +9°C° 0 mm 1 mps 763 mmHg 79%
    05:00 +9°C° 0 mm 1 mps 763 mmHg 78%
    06:00 +9°C° 0 mm 1 mps 763 mmHg 77%
    07:00 +10°C° 0 mm 1 mps 763 mmHg 73%
    08:00 +11°C° 0 mm 1 mps 763 mmHg 70%
    09:00 +12°C° 0 mm 1 mps 763 mmHg 67%
    10:00 +13°C° 0 mm 1 mps 763 mmHg 66%
    11:00 +13°C° 0 mm 1 mps 763 mmHg 65%
    12:00 +14°C° 0 mm 1 mps 763 mmHg 64%
    13:00 +14°C° 0 mm 2 mps 762 mmHg 66%
    14:00 +14°C° 0 mm 2 mps 762 mmHg 68%
    15:00 +14°C° 0 mm 2 mps 762 mmHg 71%
    16:00 +12°C° 0 mm 3 mps 762 mmHg 74%
    17:00 +11°C° 0 mm 3 mps 761 mmHg 77%
    18:00 +10°C° 0 mm 3 mps 761 mmHg 80%
    19:00 +10°C° 0 mm 3 mps 761 mmHg 79%
    20:00 +10°C° 0 mm 4 mps 761 mmHg 78%
    21:00 +10°C° 0 mm 4 mps 761 mmHg 77%
    22:00 +10°C° 0.2 mm 4 mps 760 mmHg 80%
    23:00 +10°C° 0.2 mm 4 mps 760 mmHg 82%

    28 January, Tuesday

    Time Temperature Precipitation Wind Pressure Humidity
    00:00 +10°C° 0.2 mm 3 mps 759 mmHg 85%
    01:00 +10°C° 0.3 mm 3 mps 759 mmHg 84%
    02:00 +10°C° 0.3 mm 3 mps 759 mmHg 84%
    03:00 +10°C° 0.3 mm 2 mps 758 mmHg 83%
    04:00 +10°C° 0 mm 3 mps 758 mmHg 84%
    05:00 +8°C° 0 mm 4 mps 757 mmHg 85%
    06:00 +8°C° 0 mm 5 mps 757 mmHg 85%
    07:00 +9°C° 0 mm 7 mps 757 mmHg 81%
    08:00 +10°C° 0 mm 8 mps 757 mmHg 77%
    09:00 +11°C° 0 mm 9 mps 757 mmHg 73%
    10:00 +12°C° 0 mm 10 mps 757 mmHg 65%
    11:00 +12°C° 0 mm 11 mps 757 mmHg 57%
    12:00 +13°C° 0 mm 12 mps 757 mmHg 50%
    13:00 +13°C° 0 mm 12 mps 757 mmHg 50%
    14:00 +12°C° 0 mm 12 mps 757 mmHg 50%
    15:00 +12°C° 0 mm 12 mps 757 mmHg 50%
    16:00 +10°C° 0 mm 12 mps 757 mmHg 52%
    17:00 +9°C° 0 mm 11 mps 758 mmHg 54%
    18:00 +8°C° 0 mm 11 mps 758 mmHg 56%
    19:00 +7°C° 0 mm 11 mps 759 mmHg 56%
    20:00 +7°C° 0 mm 11 mps 759 mmHg 56%
    21:00 +7°C° 0 mm 10 mps 759 mmHg 55%
    22:00 +6°C° 0 mm 10 mps 759 mmHg 56%
    23:00 +6°C° 0 mm 10 mps 760 mmHg 57%

    29 January, Wednesday

    Time Temperature Precipitation Wind Pressure Humidity
    00:00 +6°C° 0 mm 10 mps 760 mmHg 57%
    01:00 +6°C° 0 mm 10 mps 760 mmHg 58%
    02:00 +5°C° 0 mm 10 mps 760 mmHg 58%
    03:00 +5°C° 0 mm 10 mps 760 mmHg 58%
    04:00 +5°C° 0 mm 10 mps 759 mmHg 58%
    05:00 +5°C° 0 mm 10 mps 759 mmHg 59%
    06:00 +5°C° 0 mm 10 mps 759 mmHg 60%
    07:00 +6°C° 0 mm 9 mps 759 mmHg 57%
    08:00 +7°C° 0 mm 9 mps 759 mmHg 54%
    09:00 +8°C° 0 mm 9 mps 759 mmHg 52%
    10:00 +11°C° 0 mm 8 mps 759 mmHg 48%
    11:00 +12°C° 0 mm 8 mps 759 mmHg 43%
    12:00 +13°C° 0 mm 8 mps 759 mmHg 39%
    13:00 +13°C° 0 mm 8 mps 758 mmHg 41%
    14:00 +13°C° 0 mm 8 mps 758 mmHg 42%
    15:00 +13°C° 0 mm 8 mps 758 mmHg 44%
    16:00 +12°C° 0 mm 7 mps 759 mmHg 50%
    17:00 +10°C° 0 mm 7 mps 759 mmHg 55%
    18:00 +9°C° 0 mm 7 mps 759 mmHg 61%
    19:00 +8°C° 0 mm 6 mps 759 mmHg 62%
    20:00 +7°C° 0 mm 5 mps 760 mmHg 63%
    21:00 +7°C° 0 mm 4 mps 760 mmHg 63%
    22:00 +7°C° 0 mm 4 mps 760 mmHg 60%
    23:00 +8°C° 0 mm 3 mps 760 mmHg 57%

    30 January, Thursday

    Time Temperature Precipitation Wind Pressure Humidity
    00:00 +8°C° 0 mm 3 mps 761 mmHg 54%
    01:00 +8°C° 0 mm 3 mps 761 mmHg 51%
    02:00 +8°C° 0 mm 2 mps 760 mmHg 47%
    03:00 +8°C° 0 mm 2 mps 760 mmHg 44%
    04:00 +8°C° 0 mm 2 mps 761 mmHg 43%
    05:00 +8°C° 0 mm 2 mps 761 mmHg 41%
    06:00 +8°C° 0 mm 2 mps 761 mmHg 40%
    07:00 +9°C° 0 mm 2 mps 762 mmHg 40%
    08:00 +10°C° 0 mm 2 mps 762 mmHg 40%
    09:00 +12°C° 0 mm 2 mps 763 mmHg 40%
    10:00 +13°C° 0 mm 2 mps 763 mmHg 40%
    11:00 +13°C° 0 mm 3 mps 763 mmHg 41%
    12:00 +14°C° 0 mm 3 mps 763 mmHg 41%
    13:00 +13°C° 0 mm 3 mps 763 mmHg 45%
    14:00 +13°C° 0 mm 4 mps 763 mmHg 50%
    15:00 +12°C° 0 mm 4 mps 763 mmHg 55%
    16:00 +11°C° 0 mm 4 mps 764 mmHg 60%
    17:00 +9°C° 0 mm 5 mps 764 mmHg 65%
    18:00 +8°C° 0 mm 5 mps 765 mmHg 70%
    19:00 +8°C° 0 mm 5 mps 765 mmHg 69%
    20:00 +8°C° 0 mm 4 mps 765 mmHg 69%
    21:00 +8°C° 0 mm 4 mps 765 mmHg 68%
    22:00 +8°C° 0 mm 4 mps 766 mmHg 68%
    23:00 +8°C° 0 mm 4 mps 766 mmHg 67%
    Show more